Regional Weather Roundup
Issued by NWS Cleveland, OH

Home | Current Version | Previous Version | Graphics & Text | Print | Product List | Glossary On
Versions: 1 2 3 4 5 6 7 8 9 10 11 12 13 14 15 16 17 18 19 20 21 22 23 24 25 26 27 28 29 30 31 32 33 34 35 36 37 38 39 40 41 42 43 44 45 46 47 48 49 50
000
ASUS41 KCLE 260210
RWRCLE
OHIO REGIONAL WEATHER ROUNDUP
NATIONAL WEATHER SERVICE WILMINGTON, OH
1000 PM EDT SUN SEP 25 2016

NOTE: "FAIR" INDICATES FEW OR NO CLOUDS BELOW 12,000 FEET WITH NO
SIGNIFICANT WEATHER AND/OR OBSTRUCTIONS TO VISIBILITY.

OHZ001>008-015>018-024>027-034-035-043-044-260300-
   NORTHWEST OHIO

CITY           SKY/WX    TMP DP  RH WIND       PRES   REMARKS
DEFIANCE       FAIR      67  53  61 E7        30.01F
FINDLAY        FAIR      67  52  58 E6        30.02S
TOLEDO EXPRESS FAIR      61  55  81 E5        30.02F
TOLEDO EXEC    FAIR      62  55  77 CALM      30.04F
LIMA           FAIR      69  61  75 SE7       30.03S
$$

OHZ009>014-019>023-028>033-038-089-260300-
   NORTHEAST OHIO

CITY           SKY/WX    TMP DP  RH WIND       PRES   REMARKS
CLE-HOPKINS    FAIR      65  45  48 SE7       30.08S
CLE-LAKEFRONT  FAIR      68  44  42 E5        30.05S
CUY CO. ARPT   PTCLDY    63  48  59 SE7       30.08S
LORAIN-ELYRIA  FAIR      58  49  72 SE3       30.07R
ASHTABULA      FAIR      53  51  93 E5        30.11F
AKRON-CANTON   FAIR      64  46  52 SE7       30.08F
WOOSTER        FAIR      58  48  69 SE3       30.08F
MANSFIELD      FAIR      66  48  52 SE9       30.07S
YOUNGSTOWN     FAIR      57  48  72 E8        30.10F
$$

OHZ042-051>053-060>062-070>072-077>081-260300-
  SOUTHWEST OHIO

CITY           SKY/WX    TMP DP  RH WIND       PRES   REMARKS
CINC-COVINGTON FAIR      73  65  75 SE3       30.04S
CINC-LUNKEN    FAIR      68  68 100 CALM      30.03S
HAMILTON       FAIR      68  64  87 CALM      30.04S
DAYTON         FAIR      70  63  78 SE8       30.05S
WRIGHT-PAT AFB FAIR      70  64  81 E3        30.04R
DAYTON GENERAL FAIR      73  63  70 SE3       30.04S
WILMINGTON     FAIR      69  64  84 E5        30.05S
$$

OHZ036-037-039>041-045>050-054>059-063>069-073>076-082>088-260300-
  CENTRAL AND SOUTHEAST OHIO

CITY           SKY/WX    TMP DP  RH WIND       PRES   REMARKS
COLUMBUS       FAIR      71  50  47 SE8       30.04F
OSU AIRPORT    FAIR      71  51  49 SE6       30.05S
BOLTON FIELD   FAIR      67  52  58 SE7       30.05F
RICKENBACK AFB FAIR      67  51  56 E7        30.04F
NEWARK         FAIR      60  56  86 CALM      30.06F
MARION         FAIR      65  49  56 SE7       30.05F
LANCASTER      FAIR      62  55  77 CALM      30.07S
ZANESVILLE     FAIR      59  51  75 CALM      30.08S
NEW PHILLY     FAIR      59  50  72 CALM      30.09F
$$




USA.gov is the U.S. government's official web portal to all federal, state and local government web resources and services.